Weather History for RODN - September, 2012

Change the Weather History Date:

Saturday, September 15, 2012

  Actual Average Record
Temperature  
Mean Temperature 78 °F -  
Max Temperature 81 °F 82 °F 91 °F (1996)
Min Temperature 76 °F 72 °F 73 °F (1996)
Cooling Degree Days 14    
Growing Degree Days 28 (Base 50)    
Moisture  
Dew Point 78 °F    
Average Humidity 100    
Maximum Humidity 100    
Minimum Humidity 94    
Precipitation  
Precipitation 3.32 in - - ()
Sea Level Pressure  
Sea Level Pressure 29.57 in    
Wind  
Wind Speed 17 mph ()    
Max Wind Speed 45 mph    
Max Gust Speed 60 mph    
Visibility 4.8 miles    
Events Fog , Rain , Thunderstorm    
Averages and records for this station are not official NWS values.
T = Trace of Precipitation, MM = Missing Value Source: Averaged Metar Reports

Daily Weather History Graph

Daily Weather History Graph

Search for Another Location

Airport or City:

Trip Planner

Search our weather history database for the weather conditions in past years. The results will help you decide how hot, cold, wet, or windy it might be!

Date:

Astronomy

Sep. 15, 2012 Rise Set
Actual Time 6:14 AM JST 6:33 PM JST
Civil Twilight 5:51 AM JST 6:56 PM JST
Nautical Twilight 5:24 AM JST 7:23 PM JST
Astronomical Twilight 4:57 AM JST 7:50 PM JST
Moon 5:07 AM JST (9/15) 5:44 PM JST (9/15)
Length of Visible Light 13h 05m
Length of Day
12h 18m
Waning Crescent, 1% of the Moon is Illuminated
Sep 15
Waning Crescent
Sep 16
New
Sep 23
First Quarter
Sep 30
Full
Oct 8
Last Quarter

Hourly Weather History & Observations

Time (JST) Temp. Heat Index Dew Point Humidity Pressure Visibility Wind Dir Wind Speed Gust Speed Precip Events Conditions
12:49 AM 78.8 °F - 77.0 °F 94% 29.76 in 10.0 mi East 13.8 mph 25.3 mph N/A Rain Light Rain
12:54 AM 78.8 °F - 77.0 °F 94% 29.76 in 10.0 mi East 12.7 mph - N/A Rain Light Rain
12:55 AM 78.8 °F - 77.4 °F 95% 29.76 in 10.0 mi East 15.0 mph - 0.00 in Rain Light Rain
1:24 AM 77.0 °F - 77.0 °F 100% 29.75 in 10.0 mi NE 8.1 mph - N/A Rain Light Rain
1:33 AM 77.0 °F - 77.0 °F 100% 29.74 in 10.0 mi NNE 6.9 mph - N/A Rain Light Rain
1:35 AM 77.0 °F - 77.0 °F 100% 29.74 in 10.0 mi NNE 8.1 mph - N/A Rain Light Rain
1:38 AM 77.0 °F - 77.0 °F 100% 29.74 in 10.0 mi NNE 6.9 mph - N/A Rain Light Rain
1:46 AM 77.0 °F - 77.0 °F 100% 29.73 in 10.0 mi NNE 6.9 mph - N/A Rain Light Rain
1:55 AM 77.9 °F - 77.9 °F 100% 29.73 in 10.0 mi NNE 8.1 mph - 0.03 in Rain Light Rain
1:56 AM 77.0 °F - 77.0 °F 100% 29.73 in 10.0 mi NE 8.1 mph - N/A   Mostly Cloudy
1:59 AM 78.8 °F - 78.8 °F 100% 29.73 in 10.0 mi NE 8.1 mph - N/A Rain Light Rain
2:08 AM 78.8 °F - 78.8 °F 100% 29.73 in 10.0 mi ENE 5.8 mph - N/A   Mostly Cloudy
2:55 AM 78.6 °F - 78.6 °F 100% 29.72 in 10.0 mi NE 8.1 mph - 0.00 in   Mostly Cloudy
3:34 AM 78.8 °F - 78.8 °F 100% 29.71 in 10.0 mi NNE 6.9 mph - N/A Rain Light Rain
3:35 AM 78.8 °F - 78.8 °F 100% 29.71 in 9.0 mi NNE 6.9 mph - N/A Rain Light Rain
3:38 AM 78.8 °F - 78.8 °F 100% 29.71 in 7.0 mi NE 5.8 mph - N/A Rain Light Rain
3:41 AM 78.8 °F - 78.8 °F 100% 29.71 in 6.0 mi NE 4.6 mph - N/A Rain Light Rain
3:43 AM 78.8 °F - 78.8 °F 100% 29.71 in 6.0 mi NE 4.6 mph - N/A Rain Light Rain
3:45 AM 78.8 °F - 78.8 °F 100% 29.71 in 6.0 mi NNE 4.6 mph - N/A Rain Light Rain
3:51 AM 78.8 °F - 78.8 °F 100% 29.70 in 6.0 mi North 5.8 mph - N/A Rain Rain
3:53 AM 78.8 °F - 78.8 °F 100% 29.70 in 7.0 mi NNE 6.9 mph - N/A Rain Light Rain
3:55 AM 78.6 °F - 78.6 °F 100% 29.70 in 8.0 mi NNE 8.1 mph - 0.03 in Rain Light Rain
3:56 AM 78.8 °F - 78.8 °F 100% 29.70 in 9.0 mi NNE 6.9 mph - N/A Rain Light Rain
4:04 AM 78.8 °F - 78.8 °F 100% 29.70 in 10.0 mi NE 12.7 mph 19.6 mph N/A Rain Light Rain
4:05 AM 78.8 °F - 78.8 °F 100% 29.70 in 10.0 mi NE 11.5 mph 19.6 mph N/A   Mostly Cloudy
4:09 AM 78.8 °F - 78.8 °F 100% 29.70 in 10.0 mi NNE 11.5 mph - N/A   Scattered Clouds
4:10 AM 78.8 °F - 77.0 °F 94% 29.70 in 10.0 mi NNE 11.5 mph - N/A   Mostly Cloudy
4:13 AM 78.8 °F - 77.0 °F 94% 29.70 in 10.0 mi NNE 11.5 mph - N/A Rain Light Rain
4:15 AM 78.8 °F - 77.0 °F 94% 29.70 in 10.0 mi NNE 11.5 mph - N/A Rain Light Rain
4:38 AM 78.8 °F - 78.8 °F 100% 29.70 in 10.0 mi North 8.1 mph - N/A Rain Light Rain
4:40 AM 78.8 °F - 78.8 °F 100% 29.70 in 10.0 mi North 5.8 mph - N/A Rain Light Rain
4:54 AM 78.8 °F - 78.8 °F 100% 29.70 in 10.0 mi NNE 6.9 mph - N/A Rain Light Rain
4:55 AM 78.1 °F - 78.1 °F 100% 29.70 in 10.0 mi NNE 8.1 mph - 0.00 in Rain Light Rain
4:59 AM 78.8 °F - 78.8 °F 100% 29.70 in 10.0 mi NNE 6.9 mph - N/A Rain Light Rain
5:03 AM 78.8 °F - 78.8 °F 100% 29.70 in 10.0 mi NNE 5.8 mph - N/A   Overcast
5:06 AM 78.8 °F - 78.8 °F 100% 29.70 in 10.0 mi NNE 5.8 mph - N/A Rain Light Rain
5:15 AM 78.8 °F - 78.8 °F 100% 29.71 in 10.0 mi NE 6.9 mph - N/A   Overcast
5:55 AM 78.4 °F - 78.4 °F 100% 29.70 in 10.0 mi NE 9.2 mph - 0.00 in   Partly Cloudy
6:09 AM 78.8 °F - 78.8 °F 100% 29.70 in 10.0 mi NE 9.2 mph - N/A Rain Light Rain
6:34 AM 78.8 °F - 78.8 °F 100% 29.70 in 10.0 mi NE 8.1 mph - N/A Rain Light Rain
6:43 AM 78.8 °F - 78.8 °F 100% 29.70 in 10.0 mi NE 9.2 mph - N/A Rain Light Rain
6:50 AM 78.8 °F - 78.8 °F 100% 29.70 in 10.0 mi NNE 8.1 mph - N/A Rain Light Rain
6:55 AM 78.4 °F - 78.4 °F 100% 29.70 in 10.0 mi NNE 9.2 mph - 0.03 in Rain Light Rain
6:58 AM 78.8 °F - 78.8 °F 100% 29.70 in 10.0 mi NNE 8.1 mph - N/A Rain Light Rain
7:08 AM 78.8 °F - 78.8 °F 100% 29.70 in 10.0 mi NE 8.1 mph - N/A Rain Light Rain
7:13 AM 78.8 °F - 78.8 °F 100% 29.70 in 10.0 mi NE 9.2 mph - N/A Rain Light Rain
7:14 AM 78.8 °F - 78.8 °F 100% 29.70 in 10.0 mi NE 8.1 mph - N/A Rain Light Rain
7:15 AM 78.8 °F - 78.8 °F 100% 29.70 in 10.0 mi NE 8.1 mph - N/A Rain Light Rain
7:18 AM 78.8 °F - 78.8 °F 100% 29.70 in 10.0 mi NE 8.1 mph - N/A Rain Light Rain
7:19 AM 78.8 °F - 78.8 °F 100% 29.70 in 10.0 mi NE 8.1 mph - N/A Rain Light Rain
7:20 AM 78.8 °F - 78.8 °F 100% 29.70 in 10.0 mi NE 8.1 mph - N/A Rain Light Rain
7:29 AM 78.8 °F - 78.8 °F 100% 29.70 in 6.0 mi NE 9.2 mph - N/A Rain Rain
7:30 AM 78.8 °F - 78.8 °F 100% 29.70 in 6.0 mi NE 10.4 mph - N/A Rain Rain
7:40 AM 78.8 °F - 78.8 °F 100% 29.72 in 3.0 mi East 9.2 mph - N/A Rain Rain
7:41 AM 78.8 °F - 78.8 °F 100% 29.72 in 2.5 mi East 9.2 mph - N/A Rain Rain
7:42 AM 78.8 °F - 78.8 °F 100% 29.72 in 2.5 mi East 9.2 mph - N/A Rain Heavy Rain
7:44 AM 78.8 °F - 78.8 °F 100% 29.72 in 1.8 mi East 20.7 mph 29.9 mph N/A Rain Light Rain
7:46 AM 78.8 °F - 78.8 °F 100% 29.72 in 1.2 mi ENE 25.3 mph 32.2 mph N/A Rain Light Rain
7:47 AM 78.8 °F - 78.8 °F 100% 29.72 in 1.0 mi NE 27.6 mph 35.7 mph N/A Rain Light Rain
7:48 AM 77.0 °F - 77.0 °F 100% 29.72 in 0.8 mi NE 27.6 mph 35.7 mph N/A Rain Heavy Rain
7:49 AM 77.0 °F - 77.0 °F 100% 29.73 in 0.5 mi NE 25.3 mph 35.7 mph N/A Fog , Rain Heavy Rain
7:50 AM 77.0 °F - 77.0 °F 100% 29.72 in 0.5 mi NE 24.2 mph 35.7 mph N/A Fog , Rain Heavy Rain
7:52 AM 77.0 °F - 77.0 °F 100% 29.73 in 0.2 mi NE 17.3 mph 35.7 mph N/A Fog , Rain Heavy Rain
7:53 AM 77.0 °F - 77.0 °F 100% 29.73 in 0.2 mi NE 17.3 mph 35.7 mph N/A Fog , Rain Heavy Rain
7:55 AM 76.5 °F - 76.5 °F 100% 29.72 in 0.2 mi ENE 18.4 mph 35.7 mph 0.46 in Fog , Rain Heavy Rain
7:56 AM 77.0 °F - 77.0 °F 100% 29.72 in 0.2 mi NE 15.0 mph 35.7 mph N/A Fog , Rain Heavy Rain
7:57 AM 77.0 °F - 77.0 °F 100% 29.73 in 0.2 mi NE 13.8 mph 35.7 mph N/A Fog , Rain Heavy Rain
7:58 AM 77.0 °F - 77.0 °F 100% 29.73 in 0.5 mi ENE 13.8 mph - N/A Fog , Rain Heavy Rain
8:01 AM 77.0 °F - 77.0 °F 100% 29.72 in 0.8 mi ENE 13.8 mph - N/A Rain Light Rain
8:02 AM 77.0 °F - 77.0 °F 100% 29.72 in 1.0 mi NE 15.0 mph - N/A Rain Light Rain
8:03 AM 77.0 °F - 77.0 °F 100% 29.72 in 1.5 mi NE 13.8 mph - N/A Rain Light Rain
8:04 AM 77.0 °F - 77.0 °F 100% 29.72 in 2.0 mi NE 13.8 mph - N/A Rain Light Rain
8:05 AM 77.0 °F - 77.0 °F 100% 29.72 in 3.0 mi NE 13.8 mph - N/A Rain Light Rain
8:06 AM 77.0 °F - 77.0 °F 100% 29.72 in 5.0 mi ENE 13.8 mph - N/A Rain Light Rain
8:09 AM 77.0 °F - 77.0 °F 100% 29.72 in 7.0 mi NE 11.5 mph - N/A Rain Light Rain
8:14 AM 77.0 °F - 77.0 °F 100% 29.71 in 10.0 mi NE 11.5 mph - N/A Rain Light Rain
8:15 AM 77.0 °F - 77.0 °F 100% 29.71 in 10.0 mi NE 12.7 mph - N/A   Scattered Clouds
8:55 AM 78.8 °F - 78.8 °F 100% 29.71 in 10.0 mi NE 11.5 mph - 0.02 in   Partly Cloudy
9:06 AM 78.8 °F - 78.8 °F 100% 29.70 in 10.0 mi NE 11.5 mph - N/A Rain Light Rain
9:12 AM 78.8 °F - 78.8 °F 100% 29.70 in 10.0 mi ENE 11.5 mph - N/A   Clear
9:24 AM 80.6 °F 89.3 °F 80.6 °F 100% 29.71 in 2.5 mi ENE 18.4 mph 25.3 mph N/A   Partly Cloudy
9:25 AM 80.6 °F 89.3 °F 80.6 °F 100% 29.71 in 1.8 mi ENE 23.0 mph 33.4 mph N/A   Scattered Clouds
9:26 AM 78.8 °F - 78.8 °F 100% 29.71 in 1.2 mi ENE 25.3 mph 33.4 mph N/A Rain Heavy Rain
9:27 AM 78.8 °F - 78.8 °F 100% 29.71 in 1.0 mi ENE 21.9 mph 33.4 mph N/A Rain Heavy Rain
9:34 AM 78.8 °F - 78.8 °F 100% 29.70 in 1.5 mi ENE 13.8 mph 33.4 mph N/A Rain Light Rain
9:35 AM 78.8 °F - 78.8 °F 100% 29.70 in 2.0 mi ENE 12.7 mph 33.4 mph N/A Rain Light Rain
9:36 AM 78.8 °F - 78.8 °F 100% 29.70 in 4.0 mi ENE 13.8 mph - N/A Rain Light Rain
9:41 AM 78.8 °F - 78.8 °F 100% 29.70 in 10.0 mi NE 12.7 mph - N/A   Scattered Clouds
9:55 AM 79.0 °F - 79.0 °F 100% 29.70 in 10.0 mi NE 11.5 mph - 0.09 in   Partly Cloudy
10:19 AM 80.6 °F 89.3 °F 80.6 °F 100% 29.70 in 10.0 mi ENE 15.0 mph - N/A   Mostly Cloudy
10:21 AM 80.6 °F 89.3 °F 80.6 °F 100% 29.70 in 10.0 mi ENE 15.0 mph - N/A   Mostly Cloudy
10:22 AM 80.6 °F 89.3 °F 80.6 °F 100% 29.69 in 10.0 mi ENE 16.1 mph 23.0 mph N/A   Mostly Cloudy
10:37 AM 80.6 °F 89.3 °F 80.6 °F 100% 29.69 in 10.0 mi ENE 18.4 mph 25.3 mph N/A   Mostly Cloudy
10:38 AM 80.6 °F 89.3 °F 80.6 °F 100% 29.69 in 10.0 mi ENE 17.3 mph 25.3 mph N/A   Mostly Cloudy
10:40 AM 80.6 °F 89.3 °F 80.6 °F 100% 29.68 in 10.0 mi ENE 15.0 mph 25.3 mph N/A   Overcast
10:44 AM 80.6 °F 89.3 °F 80.6 °F 100% 29.68 in 10.0 mi ENE 17.3 mph 24.2 mph N/A   Mostly Cloudy
10:50 AM 80.6 °F 89.3 °F 80.6 °F 100% 29.68 in 7.0 mi East 17.3 mph - N/A Rain Light Rain
10:51 AM 80.6 °F 89.3 °F 80.6 °F 100% 29.69 in 6.0 mi East 16.1 mph - N/A Rain Light Rain
10:53 AM 80.6 °F 89.3 °F 80.6 °F 100% 29.69 in 3.0 mi ESE 19.6 mph - N/A Rain Light Rain
10:54 AM 80.6 °F 89.3 °F 80.6 °F 100% 29.69 in 1.8 mi ESE 19.6 mph - N/A Rain Light Rain
10:55 AM 79.9 °F - 79.3 °F 98% 29.69 in 1.0 mi ESE 19.6 mph 27.6 mph 0.09 in Rain Light Rain
10:56 AM 78.8 °F - 78.8 °F 100% 29.69 in 0.5 mi East 21.9 mph 31.1 mph N/A Fog , Rain Heavy Rain
10:58 AM 78.8 °F - 77.0 °F 94% 29.68 in 0.2 mi East 23.0 mph 31.1 mph N/A Fog , Rain Heavy Rain
11:00 AM 77.0 °F - 77.0 °F 100% 29.68 in 0.2 mi East 19.6 mph 31.1 mph N/A Fog , Rain Heavy Rain
11:05 AM 77.0 °F - 77.0 °F 100% 29.67 in 0.5 mi East 17.3 mph 31.1 mph N/A Fog , Rain Rain
11:07 AM 77.0 °F - 77.0 °F 100% 29.67 in 0.8 mi East 15.0 mph 27.6 mph N/A Rain Rain
11:08 AM 77.0 °F - 77.0 °F 100% 29.67 in 1.2 mi East 13.8 mph 27.6 mph N/A Rain Rain
11:09 AM 77.0 °F - 77.0 °F 100% 29.67 in 1.8 mi East 13.8 mph 27.6 mph N/A Rain Light Rain
11:10 AM 77.0 °F - 77.0 °F 100% 29.67 in 2.0 mi East 13.8 mph 25.3 mph N/A Rain Light Rain
11:13 AM 77.0 °F - 77.0 °F 100% 29.67 in 3.0 mi East 15.0 mph - N/A Rain Light Rain
11:37 AM 77.0 °F - 77.0 °F 100% 29.66 in 10.0 mi NE 11.5 mph - N/A Rain Light Rain
11:55 AM 78.3 °F - 78.3 °F 100% 29.65 in 9.0 mi NE 10.4 mph - 0.28 in Rain Light Rain
12:02 PM 78.8 °F - 78.8 °F 100% 29.66 in 8.0 mi NE 11.5 mph - N/A Rain Light Rain
12:05 PM 78.8 °F - 78.8 °F 100% 29.65 in 2.0 mi NE 10.4 mph - N/A Rain Light Rain
12:06 PM 78.8 °F - 78.8 °F 100% 29.65 in 1.8 mi NE 11.5 mph - N/A Rain Heavy Rain
12:07 PM 78.8 °F - 78.8 °F 100% 29.66 in 1.5 mi NE 10.4 mph - N/A Rain Heavy Rain
12:08 PM 78.8 °F - 78.8 °F 100% 29.66 in 1.2 mi NE 9.2 mph - N/A Rain Heavy Rain
12:09 PM 78.8 °F - 78.8 °F 100% 29.66 in 1.0 mi NE 8.1 mph - N/A Rain Heavy Rain
12:10 PM 78.8 °F - 78.8 °F 100% 29.66 in 1.0 mi NE 10.4 mph - N/A Rain Heavy Rain
12:12 PM 78.8 °F - 78.8 °F 100% 29.65 in 0.8 mi NE 15.0 mph 21.9 mph N/A Rain Heavy Rain
12:15 PM 78.8 °F - 78.8 °F 100% 29.65 in 1.0 mi NE 19.6 mph 25.3 mph N/A Rain Heavy Rain
12:18 PM 77.0 °F - 77.0 °F 100% 29.64 in 1.2 mi NE 17.3 mph 25.3 mph N/A Rain Light Rain
12:19 PM 77.0 °F - 77.0 °F 100% 29.64 in 1.5 mi NE 17.3 mph 25.3 mph N/A Rain Light Rain
12:20 PM 77.0 °F - 77.0 °F 100% 29.65 in 1.8 mi NE 17.3 mph 25.3 mph N/A Rain Light Rain
12:21 PM 77.0 °F - 77.0 °F 100% 29.65 in 2.0 mi ENE 15.0 mph 25.3 mph N/A Rain Light Rain
12:23 PM 77.0 °F - 77.0 °F 100% 29.65 in 4.0 mi ENE 11.5 mph - N/A Rain Light Rain
12:25 PM 77.0 °F - 77.0 °F 100% 29.65 in 9.0 mi ENE 10.4 mph - N/A Rain Light Rain
12:26 PM 77.0 °F - 77.0 °F 100% 29.64 in 10.0 mi ENE 10.4 mph - N/A   Scattered Clouds
12:28 PM 77.0 °F - 77.0 °F 100% 29.64 in 10.0 mi ENE 10.4 mph - N/A Rain Light Rain
12:35 PM 78.8 °F - 78.8 °F 100% 29.64 in 10.0 mi NE 15.0 mph 20.7 mph N/A Rain , Thunderstorm Light Rain
12:38 PM 78.8 °F - 78.8 °F 100% 29.64 in 2.5 mi NE 19.6 mph 24.2 mph N/A Rain , Thunderstorm Light Rain
12:39 PM 78.8 °F - 78.8 °F 100% 29.64 in 1.5 mi NE 19.6 mph 24.2 mph N/A Rain , Thunderstorm Light Rain
12:40 PM 78.8 °F - 78.8 °F 100% 29.64 in 1.2 mi NE 16.1 mph 24.2 mph N/A Rain , Thunderstorm Heavy Rain
12:41 PM 78.8 °F - 78.8 °F 100% 29.65 in 1.0 mi ENE 17.3 mph 26.5 mph N/A Rain , Thunderstorm Heavy Rain
12:42 PM 78.8 °F - 78.8 °F 100% 29.65 in 0.8 mi East 19.6 mph 26.5 mph N/A Rain , Thunderstorm Heavy Rain
12:43 PM 78.8 °F - 78.8 °F 100% 29.65 in 0.5 mi East 17.3 mph 26.5 mph N/A Fog , Rain , Thunderstorm Heavy Rain
12:46 PM 77.0 °F - 77.0 °F 100% 29.65 in 0.2 mi East 13.8 mph 26.5 mph N/A Fog , Rain , Thunderstorm Heavy Rain
12:47 PM 77.0 °F - 77.0 °F 100% 29.64 in 0.5 mi East 15.0 mph 26.5 mph N/A Fog , Rain Light Rain
12:49 PM 77.0 °F - 77.0 °F 100% 29.64 in 0.5 mi East 17.3 mph 26.5 mph N/A Fog , Rain Light Rain
12:52 PM 77.0 °F - 77.0 °F 100% 29.64 in 0.8 mi East 15.0 mph - N/A Rain Light Rain
12:53 PM 77.0 °F - 77.0 °F 100% 29.64 in 1.2 mi East 15.0 mph - N/A Rain Light Rain
12:54 PM 77.0 °F - 77.0 °F 100% 29.64 in 2.0 mi East 13.8 mph - N/A Rain Light Rain
12:55 PM 77.5 °F - 77.5 °F 100% 29.65 in 3.0 mi East 13.8 mph - 0.52 in Rain Light Rain
12:57 PM 77.0 °F - 77.0 °F 100% 29.65 in 2.5 mi East 16.1 mph 23.0 mph N/A Rain Light Rain
1:00 PM 77.0 °F - 77.0 °F 100% 29.64 in 2.0 mi East 21.9 mph 28.8 mph N/A Rain Rain
1:06 PM 77.0 °F - 77.0 °F 100% 29.64 in 3.0 mi East 17.3 mph 28.8 mph N/A Rain Light Rain
1:09 PM 77.0 °F - 77.0 °F 100% 29.64 in 6.0 mi East 16.1 mph 28.8 mph N/A Rain Light Rain
1:37 PM 78.8 °F - 78.8 °F 100% 29.61 in 9.0 mi ENE 12.7 mph - N/A Rain Light Rain
1:51 PM 77.0 °F - 77.0 °F 100% 29.61 in 4.0 mi East 19.6 mph 33.4 mph N/A Rain Light Rain
1:53 PM 77.0 °F - 77.0 °F 100% 29.61 in 2.5 mi East 18.4 mph 33.4 mph N/A Rain Light Rain
1:55 PM 76.8 °F - 76.6 °F 99% 29.60 in 2.5 mi East 16.1 mph 33.4 mph 0.11 in Rain Light Rain
1:56 PM 77.0 °F - 77.0 °F 100% 29.60 in 3.0 mi East 15.0 mph 33.4 mph N/A Rain Light Rain
2:00 PM 77.0 °F - 77.0 °F 100% 29.60 in 3.0 mi East 15.0 mph - N/A Rain Light Rain
2:05 PM 77.0 °F - 77.0 °F 100% 29.60 in 5.0 mi East 15.0 mph - N/A Rain Light Rain
2:15 PM 78.8 °F - 78.8 °F 100% 29.59 in 6.0 mi ENE 15.0 mph - N/A Rain Light Rain
2:22 PM 78.8 °F - 78.8 °F 100% 29.58 in 9.0 mi ENE 23.0 mph 27.6 mph N/A Rain Light Rain
2:24 PM 78.8 °F - 78.8 °F 100% 29.58 in 9.0 mi ENE 23.0 mph 27.6 mph N/A Rain Light Rain
2:25 PM 80.6 °F 89.3 °F 80.6 °F 100% 29.58 in 10.0 mi ENE 21.9 mph 27.6 mph N/A Rain Light Rain
2:27 PM 80.6 °F 89.3 °F 80.6 °F 100% 29.58 in 10.0 mi ENE 20.7 mph 27.6 mph N/A Rain Light Rain
2:37 PM 80.6 °F 89.3 °F 80.6 °F 100% 29.57 in 10.0 mi ENE 23.0 mph 28.8 mph N/A Rain Light Rain
2:39 PM 80.6 °F 89.3 °F 80.6 °F 100% 29.57 in 10.0 mi ENE 24.2 mph 28.8 mph N/A Rain Light Rain
2:40 PM 80.6 °F 89.3 °F 80.6 °F 100% 29.57 in 10.0 mi ENE 20.7 mph 28.8 mph N/A Rain Light Rain
2:42 PM 80.6 °F 89.3 °F 80.6 °F 100% 29.57 in 10.0 mi ENE 21.9 mph 28.8 mph N/A Rain Light Rain
2:44 PM 80.6 °F 89.3 °F 80.6 °F 100% 29.57 in 10.0 mi ENE 19.6 mph 28.8 mph N/A Rain Light Rain
2:49 PM 80.6 °F 89.3 °F 80.6 °F 100% 29.57 in 10.0 mi ENE 21.9 mph 27.6 mph N/A Rain Light Rain
2:50 PM 80.6 °F 89.3 °F 80.6 °F 100% 29.57 in 10.0 mi ENE 23.0 mph 28.8 mph N/A Rain Light Rain
2:55 PM 80.8 °F 89.7 °F 80.4 °F 99% 29.57 in 10.0 mi ENE 24.2 mph 29.9 mph 0.04 in Rain Light Rain
2:57 PM 80.6 °F 89.3 °F 80.6 °F 100% 29.57 in 10.0 mi ENE 24.2 mph 29.9 mph N/A Rain Light Rain
2:58 PM 80.6 °F 89.3 °F 80.6 °F 100% 29.57 in 9.0 mi ENE 23.0 mph 29.9 mph N/A Rain Light Rain
3:16 PM 80.6 °F 89.3 °F 80.6 °F 100% 29.56 in 10.0 mi ENE 24.2 mph 34.5 mph N/A Rain Light Rain
3:43 PM 80.6 °F 89.3 °F 80.6 °F 100% 29.55 in 10.0 mi ENE 23.0 mph 32.2 mph N/A   Scattered Clouds
3:49 PM 80.6 °F 89.3 °F 80.6 °F 100% 29.54 in 10.0 mi ENE 27.6 mph 35.7 mph N/A   Mostly Cloudy
3:51 PM 80.6 °F 89.3 °F 80.6 °F 100% 29.54 in 10.0 mi ENE 29.9 mph 35.7 mph N/A   Mostly Cloudy
3:53 PM 80.6 °F 89.3 °F 80.6 °F 100% 29.54 in 10.0 mi ENE 25.3 mph 35.7 mph N/A   Mostly Cloudy
3:55 PM 81.1 °F 91.0 °F 80.8 °F 99% 29.54 in 10.0 mi ENE 26.5 mph 35.7 mph 0.01 in   Mostly Cloudy
3:56 PM 80.6 °F 89.3 °F 80.6 °F 100% 29.54 in 10.0 mi ENE 27.6 mph 35.7 mph N/A Rain Light Rain
4:55 PM 80.6 °F 89.1 °F 80.4 °F 99% 29.51 in 10.0 mi ENE 26.5 mph 34.5 mph 0.01 in Rain Light Rain
5:10 PM 80.6 °F 88.1 °F 78.8 °F 94% 29.51 in 7.0 mi ENE 31.1 mph 38.0 mph N/A Rain Light Rain
5:14 PM 78.8 °F - 78.8 °F 100% 29.51 in 3.0 mi ENE 32.2 mph 38.0 mph N/A Rain Light Rain
5:16 PM 78.8 °F - 78.8 °F 100% 29.52 in 2.5 mi ENE 29.9 mph 38.0 mph N/A Rain Heavy Rain
5:18 PM 78.8 °F - 78.8 °F 100% 29.52 in 1.5 mi ENE 28.8 mph 38.0 mph N/A Rain Heavy Rain
5:19 PM 78.8 °F - 78.8 °F 100% 29.52 in 1.2 mi ENE 28.8 mph 38.0 mph N/A Rain Heavy Rain
5:20 PM 78.8 °F - 78.8 °F 100% 29.52 in 1.0 mi ENE 25.3 mph 38.0 mph N/A Rain Heavy Rain
5:22 PM 78.8 °F - 78.8 °F 100% 29.52 in 1.0 mi ENE 23.0 mph 38.0 mph N/A Rain Heavy Rain
5:24 PM 78.8 °F - 78.8 °F 100% 29.52 in 0.8 mi ENE 24.2 mph 38.0 mph N/A Rain Heavy Rain
5:26 PM 78.8 °F - 78.8 °F 100% 29.50 in 0.8 mi NE 23.0 mph 38.0 mph N/A Rain Heavy Rain
5:27 PM 78.8 °F - 78.8 °F 100% 29.50 in 0.8 mi NE 24.2 mph 38.0 mph N/A Rain Heavy Rain
5:31 PM 78.8 °F - 78.8 °F 100% 29.50 in 1.0 mi ENE 27.6 mph 36.8 mph N/A Rain Light Rain
5:33 PM 78.8 °F - 78.8 °F 100% 29.50 in 1.2 mi ENE 24.2 mph 36.8 mph N/A Rain Light Rain
5:34 PM 78.8 °F - 78.8 °F 100% 29.50 in 1.5 mi ENE 25.3 mph 36.8 mph N/A Rain Light Rain
5:35 PM 78.8 °F - 78.8 °F 100% 29.51 in 2.5 mi ENE 26.5 mph 36.8 mph N/A Rain Light Rain
5:36 PM 78.8 °F - 78.8 °F 100% 29.50 in 4.0 mi ENE 26.5 mph 36.8 mph N/A Rain Light Rain
5:37 PM 78.8 °F - 78.8 °F 100% 29.50 in 4.0 mi ENE 25.3 mph 36.8 mph N/A Rain Light Rain
5:46 PM 78.8 °F - 78.8 °F 100% 29.50 in 4.0 mi NE 33.4 mph 43.7 mph N/A Rain Light Rain
5:49 PM 78.8 °F - 78.8 °F 100% 29.51 in 2.0 mi ENE 32.2 mph 43.7 mph N/A Rain Light Rain
5:50 PM 78.8 °F - 78.8 °F 100% 29.51 in 1.2 mi ENE 35.7 mph 43.7 mph N/A Rain Light Rain
5:51 PM 78.8 °F - 78.8 °F 100% 29.50 in 1.0 mi ENE 33.4 mph 43.7 mph N/A Rain Rain
5:53 PM 78.8 °F - 78.8 °F 100% 29.50 in 0.8 mi East 28.8 mph 43.7 mph N/A Rain Heavy Rain
5:55 PM 78.1 °F - 78.1 °F 100% 29.51 in 0.8 mi East 28.8 mph 43.7 mph 0.34 in Rain Heavy Rain
5:59 PM 78.8 °F - 78.8 °F 100% 29.50 in 1.0 mi ENE 29.9 mph 43.7 mph N/A Rain Rain
6:00 PM 78.8 °F - 78.8 °F 100% 29.50 in 1.2 mi ENE 33.4 mph 42.6 mph N/A Rain Light Rain
6:01 PM 78.8 °F - 78.8 °F 100% 29.50 in 1.8 mi ENE 35.7 mph 44.9 mph N/A Rain Light Rain
6:02 PM 78.8 °F - 78.8 °F 100% 29.50 in 2.0 mi ENE 35.7 mph 44.9 mph N/A Rain Light Rain
6:04 PM 78.8 °F - 78.8 °F 100% 29.50 in 3.0 mi ENE 29.9 mph 44.9 mph N/A Rain Light Rain
6:08 PM 78.8 °F - 78.8 °F 100% 29.50 in 5.0 mi ENE 32.2 mph 44.9 mph N/A Rain Light Rain
6:21 PM 77.0 °F - 77.0 °F 100% 29.49 in 2.5 mi ENE 31.1 mph 39.1 mph N/A Rain Heavy Rain
6:25 PM 77.0 °F - 77.0 °F 100% 29.49 in 1.8 mi ENE 27.6 mph 39.1 mph N/A Rain Heavy Rain
6:31 PM 78.8 °F - 78.8 °F 100% 29.49 in 2.0 mi ENE 25.3 mph 36.8 mph N/A Rain Heavy Rain
6:36 PM 78.8 °F - 78.8 °F 100% 29.49 in 3.0 mi NE 27.6 mph 36.8 mph N/A Rain Heavy Rain
6:42 PM 78.8 °F - 78.8 °F 100% 29.48 in 4.0 mi ENE 29.9 mph 38.0 mph N/A Rain Rain
6:49 PM 78.8 °F - 78.8 °F 100% 29.48 in 5.0 mi NE 32.2 mph 39.1 mph N/A Rain Heavy Rain
6:55 PM 78.6 °F - 78.6 °F 100% 29.48 in 5.0 mi NE 25.3 mph 39.1 mph 0.15 in Rain Rain
7:01 PM 78.8 °F - 78.8 °F 100% 29.47 in 5.0 mi NE 28.8 mph 35.7 mph N/A Rain Rain
7:03 PM 78.8 °F - 78.8 °F 100% 29.47 in 5.0 mi NE 31.1 mph 34.5 mph N/A Rain Rain
7:06 PM 78.8 °F - 78.8 °F 100% 29.47 in 4.0 mi NE 31.1 mph 41.4 mph N/A Rain Rain
7:15 PM 78.8 °F - 78.8 °F 100% 29.47 in 4.0 mi NE 25.3 mph 41.4 mph N/A Rain Rain
7:20 PM 78.8 °F - 78.8 °F 100% 29.47 in 3.0 mi NE 24.2 mph 33.4 mph N/A Rain Heavy Rain
7:22 PM 78.8 °F - 78.8 °F 100% 29.46 in 4.0 mi NE 27.6 mph 33.4 mph N/A Rain Light Rain
7:30 PM 78.8 °F - 78.8 °F 100% 29.46 in 6.0 mi NE 25.3 mph 39.1 mph N/A Rain Rain
7:33 PM 78.8 °F - 78.8 °F 100% 29.45 in 6.0 mi NE 27.6 mph 39.1 mph N/A Rain Light Rain
7:39 PM 78.8 °F - 78.8 °F 100% 29.46 in 3.0 mi NE 25.3 mph 36.8 mph N/A Rain Rain
7:41 PM 78.8 °F - 78.8 °F 100% 29.46 in 2.5 mi NE 24.2 mph 36.8 mph N/A Rain Heavy Rain
7:45 PM 78.8 °F - 78.8 °F 100% 29.46 in 1.8 mi NE 25.3 mph 36.8 mph N/A Rain Heavy Rain
7:46 PM 78.8 °F - 78.8 °F 100% 29.46 in 1.8 mi NE 26.5 mph 36.8 mph N/A Rain Heavy Rain
7:47 PM 78.8 °F - 78.8 °F 100% 29.45 in 1.5 mi NE 27.6 mph 34.5 mph N/A Rain Heavy Rain
7:49 PM 78.8 °F - 78.8 °F 100% 29.45 in 1.8 mi NE 27.6 mph 34.5 mph N/A Rain Heavy Rain
7:50 PM 78.8 °F - 78.8 °F 100% 29.45 in 1.8 mi NE 27.6 mph 35.7 mph N/A Rain Heavy Rain
7:51 PM 78.8 °F - 78.8 °F 100% 29.45 in 2.0 mi NE 28.8 mph 35.7 mph N/A Rain Heavy Rain
7:52 PM 78.8 °F - 78.8 °F 100% 29.45 in 2.0 mi NE 28.8 mph 35.7 mph N/A Rain Light Rain
7:55 PM 78.3 °F - 78.3 °F 100% 29.45 in 3.0 mi NE 28.8 mph 39.1 mph 0.23 in Rain Light Rain
8:15 PM 78.8 °F - 78.8 °F 100% 29.45 in 5.0 mi NE 26.5 mph 39.1 mph N/A Rain Heavy Rain
8:16 PM 78.8 °F - 78.8 °F 100% 29.45 in 5.0 mi NE 25.3 mph 34.5 mph N/A Rain Heavy Rain
8:20 PM 78.8 °F - 78.8 °F 100% 29.44 in 4.0 mi NE 28.8 mph 38.0 mph N/A Rain Rain
8:21 PM 78.8 °F - 78.8 °F 100% 29.45 in 4.0 mi NE 29.9 mph 38.0 mph N/A Rain Rain
8:22 PM 78.8 °F - 78.8 °F 100% 29.45 in 4.0 mi NE 27.6 mph 38.0 mph N/A Rain Rain
8:24 PM 78.8 °F - 78.8 °F 100% 29.45 in 5.0 mi NE 28.8 mph 38.0 mph N/A Rain Rain
8:26 PM 78.8 °F - 78.8 °F 100% 29.44 in 5.0 mi NE 27.6 mph 38.0 mph N/A Rain Rain
8:37 PM 78.8 °F - 78.8 °F 100% 29.43 in 3.0 mi NE 27.6 mph 41.4 mph N/A Rain Heavy Rain
8:38 PM 78.8 °F - 78.8 °F 100% 29.43 in 3.0 mi NE 33.4 mph 41.4 mph N/A Rain Heavy Rain
8:40 PM 78.8 °F - 78.8 °F 100% 29.44 in 3.0 mi NE 32.2 mph 41.4 mph N/A Rain Light Rain
8:41 PM 78.8 °F - 78.8 °F 100% 29.43 in 3.0 mi NE 29.9 mph 41.4 mph N/A Rain Light Rain
8:44 PM 78.8 °F - 78.8 °F 100% 29.43 in 4.0 mi NE 26.5 mph 41.4 mph N/A Rain Light Rain
8:47 PM 78.8 °F - 78.8 °F 100% 29.44 in 4.0 mi NE 32.2 mph 43.7 mph N/A Rain Light Rain
8:49 PM 78.8 °F - 78.8 °F 100% 29.43 in 2.5 mi ENE 32.2 mph 44.9 mph N/A Rain Light Rain
8:51 PM 78.8 °F - 78.8 °F 100% 29.43 in 1.8 mi ENE 29.9 mph 44.9 mph N/A Rain Heavy Rain
8:52 PM 78.8 °F - 78.8 °F 100% 29.43 in 1.8 mi ENE 29.9 mph 44.9 mph N/A Rain Heavy Rain
8:53 PM 78.8 °F - 78.8 °F 100% 29.43 in 1.8 mi ENE 31.1 mph 44.9 mph N/A Rain Heavy Rain
8:54 PM 78.8 °F - 78.8 °F 100% 29.43 in 1.5 mi ENE 28.8 mph 44.9 mph N/A Rain Rain
8:55 PM 78.6 °F - 78.6 °F 100% 29.43 in 1.5 mi ENE 27.6 mph 44.9 mph 0.22 in Rain Rain
8:56 PM 78.8 °F - 78.8 °F 100% 29.43 in 1.8 mi ENE 29.9 mph 44.9 mph N/A Rain Rain
8:58 PM 78.8 °F - 78.8 °F 100% 29.43 in 2.0 mi ENE 28.8 mph 44.9 mph N/A Rain Rain
9:00 PM 78.8 °F - 78.8 °F 100% 29.42 in 2.5 mi ENE 31.1 mph 40.3 mph N/A Rain Rain
9:01 PM 78.8 °F - 78.8 °F 100% 29.42 in 3.0 mi ENE 33.4 mph 40.3 mph N/A Rain Rain
9:06 PM 78.8 °F - 78.8 °F 100% 29.42 in 2.5 mi ENE 27.6 mph 40.3 mph N/A Rain Heavy Rain
9:08 PM 78.8 °F - 78.8 °F 100% 29.42 in 2.0 mi ENE 31.1 mph 40.3 mph N/A Rain Heavy Rain
9:10 PM 78.8 °F - 78.8 °F 100% 29.42 in 1.8 mi ENE 32.2 mph 39.1 mph N/A Rain Heavy Rain
9:11 PM 78.8 °F - 78.8 °F 100% 29.42 in 1.5 mi ENE 31.1 mph 39.1 mph N/A Rain Heavy Rain
9:18 PM 78.8 °F - 78.8 °F 100% 29.40 in 1.8 mi NE 28.8 mph 39.1 mph N/A Rain Heavy Rain
9:19 PM 78.8 °F - 78.8 °F 100% 29.40 in 1.8 mi NE 28.8 mph 39.1 mph N/A Rain Heavy Rain
9:20 PM 78.8 °F - 78.8 °F 100% 29.40 in 2.0 mi NE 31.1 mph 39.1 mph N/A Rain Heavy Rain
9:22 PM 78.8 °F - 78.8 °F 100% 29.40 in 2.5 mi ENE 35.7 mph 41.4 mph N/A Rain Heavy Rain
9:23 PM 78.8 °F - 78.8 °F 100% 29.40 in 3.0 mi ENE 32.2 mph 41.4 mph N/A Rain Rain
9:36 PM 78.8 °F - 78.8 °F 100% 29.39 in 6.0 mi ENE 39.1 mph 49.5 mph N/A Rain Light Rain
9:46 PM 78.8 °F - 78.8 °F 100% 29.38 in 8.0 mi ENE 32.2 mph 48.3 mph N/A Rain Light Rain
9:52 PM 78.8 °F - 78.8 °F 100% 29.39 in 3.0 mi East 39.1 mph 57.5 mph N/A Rain Rain
9:53 PM 78.8 °F - 78.8 °F 100% 29.39 in 2.5 mi East 39.1 mph 57.5 mph N/A Rain Rain
9:55 PM 79.0 °F - 79.0 °F 100% 29.39 in 2.0 mi ENE 36.8 mph 57.5 mph 0.27 in Rain Heavy Rain
9:56 PM 78.8 °F - 78.8 °F 100% 29.39 in 1.8 mi ENE 44.9 mph 57.5 mph N/A Rain Heavy Rain
9:57 PM 78.8 °F - 78.8 °F 100% 29.39 in 1.5 mi ENE 44.9 mph 57.5 mph N/A Rain Heavy Rain
9:58 PM 78.8 °F - 78.8 °F 100% 29.39 in 1.5 mi ENE 39.1 mph 57.5 mph N/A Rain Heavy Rain
10:00 PM 78.8 °F - 78.8 °F 100% 29.39 in 1.2 mi ENE 39.1 mph 57.5 mph N/A Rain Heavy Rain
10:06 PM 77.0 °F - 77.0 °F 100% 29.38 in 1.2 mi ENE 36.8 mph 57.5 mph N/A Rain Heavy Rain
10:08 PM 77.0 °F - 77.0 °F 100% 29.38 in 1.0 mi ENE 40.3 mph 51.8 mph N/A Rain Heavy Rain
10:10 PM 77.0 °F - 77.0 °F 100% 29.37 in 1.0 mi NE 36.8 mph 51.8 mph N/A Rain Heavy Rain
10:12 PM 77.0 °F - 77.0 °F 100% 29.36 in 1.2 mi NE 36.8 mph 49.5 mph N/A Rain Heavy Rain
10:16 PM 77.0 °F - 77.0 °F 100% 29.35 in 1.5 mi NE 39.1 mph 50.6 mph N/A Rain Heavy Rain
10:17 PM 77.0 °F - 77.0 °F 100% 29.34 in 1.8 mi NE 36.8 mph 50.6 mph N/A Rain Heavy Rain
10:18 PM 77.0 °F - 77.0 °F 100% 29.34 in 2.0 mi NE 36.8 mph 50.6 mph N/A Rain Heavy Rain
10:20 PM 77.0 °F - 77.0 °F 100% 29.34 in 2.5 mi NE 34.5 mph 50.6 mph N/A Rain Light Rain
10:22 PM 77.0 °F - 77.0 °F 100% 29.34 in 3.0 mi NE 36.8 mph 50.6 mph N/A Rain Light Rain
10:27 PM 77.0 °F - 77.0 °F 100% 29.34 in 6.0 mi ENE 36.8 mph 50.6 mph N/A Rain Rain
10:30 PM 77.0 °F - 77.0 °F 100% 29.34 in 6.0 mi NE 38.0 mph 50.6 mph N/A Rain Rain
10:31 PM 78.8 °F - 78.8 °F 100% 29.34 in 6.0 mi ENE 40.3 mph 50.6 mph N/A Rain Rain
10:32 PM 78.8 °F - 78.8 °F 100% 29.34 in 6.0 mi NE 40.3 mph 50.6 mph N/A Rain Rain
10:33 PM 78.8 °F - 78.8 °F 100% 29.34 in 5.0 mi ENE 40.3 mph 52.9 mph N/A Rain Rain
10:36 PM 78.8 °F - 78.8 °F 100% 29.34 in 5.0 mi ENE 42.6 mph 55.2 mph N/A Rain Rain
10:41 PM 78.8 °F - 78.8 °F 100% 29.33 in 5.0 mi ENE 42.6 mph 57.5 mph N/A Rain Rain
10:44 PM 78.8 °F - 78.8 °F 100% 29.33 in 5.0 mi ENE 42.6 mph 57.5 mph N/A Rain Rain
10:46 PM 78.8 °F - 78.8 °F 100% 29.32 in 5.0 mi ENE 42.6 mph 57.5 mph N/A Rain Rain
10:55 PM 78.3 °F - 78.3 °F 100% 29.31 in 5.0 mi ENE 40.3 mph 55.2 mph 0.30 in Rain Rain
11:12 PM 78.8 °F - 78.8 °F 100% 29.30 in 3.0 mi ENE 43.7 mph 59.8 mph N/A Rain Rain
11:17 PM 78.8 °F - 78.8 °F 100% 29.29 in 4.0 mi ENE 42.6 mph 59.8 mph N/A Rain Rain
11:30 PM 78.8 °F - 77.0 °F 94% 29.27 in 5.0 mi NE 38.0 mph 54.1 mph N/A Rain Light Rain
11:32 PM 78.8 °F - 77.0 °F 94% 29.26 in 5.0 mi NE 40.3 mph 54.1 mph N/A Rain Light Rain
11:35 PM 78.8 °F - 77.0 °F 94% 29.26 in 5.0 mi ENE 43.7 mph 58.7 mph N/A Rain Rain
11:41 PM 78.8 °F - 78.8 °F 100% 29.26 in 4.0 mi NE 40.3 mph 58.7 mph N/A Rain Rain
11:55 PM 78.3 °F - 78.3 °F 100% 29.25 in 3.0 mi ENE 39.1 mph 55.2 mph 0.09 in Rain Rain
11:58 PM 78.8 °F - 78.8 °F 100% 29.24 in 2.5 mi NE 39.1 mph 55.2 mph N/A Rain Heavy Rain